Regional Weather Roundup
Issued by NWS

Home | Current Version | Previous Version | Text Only | Print | Product List | Glossary On
Versions: 1 2 3 4 5 6 7 8 9 10 11 12 13 14 15 16 17 18 19 20 21 22 23 24 25 26 27 28 29 30 31 32 33 34 35 36 37 38 39 40 41 42 43 44 45 46 47 48 49 50
000
ASUS44 KFWD 161901
RWRTX
NORTH TEXAS HOURLY WEATHER ROUNDUP
NATIONAL WEATHER SERVICE FORT WORTH TX
200 PM CDT MON OCT 16 2017

NOTE: "FAIR" INDICATES FEW OR NO CLOUDS BELOW 12,000 FEET WITH NO
SIGNIFICANT WEATHER AND/OR OBSTRUCTIONS TO VISIBILITY.

TXZ118-119-162000-
DALLAS/FORT WORTH METROPLEX

CITY           SKY/WX    TMP DP  RH WIND       PRES   REMARKS
DFW AIRPORT    SUNNY     72  36  26 VRB3      30.33F
DALLAS LOVE    SUNNY     71  38  29 N5        30.34F
FTW MEACHAM    SUNNY     71  37  28 N6        30.34F
DAL-EXECUTIVE  SUNNY     70  39  32 VRB6      30.34F
FTW-ALLIANCE   SUNNY     71  35  26 N8        30.35F
FTW-NAS-JRB    SUNNY     71  33  24 NE9       30.36F
FTW-SPINKS     SUNNY     72  34  25 N6        30.37F
ARLINGTON      SUNNY     69  38  32 VRB7      30.35F
GRAND PRAIRIE  SUNNY     70  36  28 N9        30.36F
ADDISON        SUNNY     70  37  30 N8        30.35F
MESQUITE       SUNNY     70  39  32 NW9       30.34F
LANCASTER      SUNNY     69  38  32 N9        30.35F
$$

TXZ091>094-102>105-117-120-121-131>134-162000-
NORTH CENTRAL TEXAS

CITY           SKY/WX    TMP DP  RH WIND       PRES   REMARKS
SHRMAN/DENISON NOT AVBL
GAINESVILLE    SUNNY     67  36  31 NE5       30.38F
BOWIE          SUNNY     69  35  29 CALM      30.37F
BRIDGEPORT     SUNNY     68  33  27 NE3       30.38F
DECATUR        SUNNY     69  31  24 NE5       30.34F
DENTON         SUNNY     70  36  28 NE7       30.35F
MCKINNEY       SUNNY     72  38  29 NE10      30.34F
BONHAM         SUNNY     68  36  31 NE10      30.36F
ROCKWALL       SUNNY     70  40  33 NE6       30.35F
TERRELL        SUNNY     71  38  29 NE13      30.33F
WAXAHACHIE     SUNNY     69  43  38 N9        30.35F
CLEBURNE       SUNNY     68  37  32 NE7       30.36F
$$

TXZ083>090-098>101-113>116-127>130-139>142-154-155-162000-
WESTERN NORTH TEXAS

CITY           SKY/WX    TMP DP  RH WIND       PRES   REMARKS
WICHITA FALLS  SUNNY     67  35  30 CALM      30.37F
WF-KICKAPOO    SUNNY     68  34  27 E5        30.40F HAZE
VERNON         SUNNY     70  24  18 S3        30.39F
ABILENE        SUNNY     67  33  28 NE5       30.39F
ABILENE-DYESS  SUNNY     65  40  39 NE3       30.39F
BRECKENRIDGE   SUNNY     71  33  24 NE8       30.37F HAZE
CISCO          SUNNY     68  34  28 N6        30.40F
EASTLAND       SUNNY     68  35  29 E3        30.37F
RANGER         SUNNY     67  38  34 N7        30.38F
MINERAL WELLS  SUNNY     71  32  23 NE10      30.35F
STEPHENVILLE   SUNNY     70  32  24 N9        30.39F
COMANCHE       SUNNY     69  35  28 N8        30.37F
COLEMAN        SUNNY     70  30  22 NE8       30.38F
$$

TXZ143>147-156>162-174-175-162000-
CENTRAL TEXAS

CITY           SKY/WX    TMP DP  RH WIND       PRES   REMARKS
WACO           SUNNY     73  39  29 VRB5      30.33F
WACO-MCGREGOR  SUNNY     71  39  31 N10G17    30.33F
HILLSBORO      SUNNY     70  40  34 N9        30.34F
CORSICANA      SUNNY     70  42  36 N8        30.33F
MEXIA          SUNNY     70  40  33 N6G17     30.31F
HEARNE         SUNNY     73  43  33 N9G20     30.30F
CAMERON        SUNNY     74  44  34 N7        30.30F
TEMPLE         SUNNY     71  40  32 NE14      30.33F
KILLEEN        SUNNY     68  46  45 NE7       30.32F
KILLEEN-SKYLRK SUNNY     70  42  36 N12       30.33F
FORT HOOD      SUNNY     70  41  35 NE9       30.30F
HAMILTON       SUNNY     69  37  30 N7        30.37F
LAMPASAS       SUNNY     71  42  35 N7        30.34F
$$

TXZ095>097-106>112-122>126-135>138-148>153-164>167-162000-
EAST TEXAS

CITY           SKY/WX    TMP DP  RH WIND       PRES   REMARKS
PARIS          SUNNY     69  38  32 N9        30.34F
SULPHUR SPRNGS SUNNY     70  36  28 NE3       30.35F
TYLER          SUNNY     72  38  29 NE8       30.30F
LONGVIEW       SUNNY     71  43  36 NE13      30.29F
MARSHALL       SUNNY     70  38  30 N12       30.32F
ATHENS         SUNNY     68  39  34 N9        30.30F
PALESTINE      SUNNY     72  45  37 NE10      30.31F
HENDERSON      SUNNY     71  41  34 N13G20    30.30F
CENTER         CLEAR     73  46  37 N16G24    30.28F
NACOGDOCHES    SUNNY     73  43  33 VRB7      30.27F
LUFKIN         SUNNY     72  45  37 N10       30.26F
$$

SUPPLEMENTAL OBSERVATIONS (NWS FORT WORTH AREA)

CITY           SKY/WX    TMP DP  RH WIND       PRES   REMARKS
$$

SUPPLEMENTAL OBSERVATIONS (NWS NORMAN AREA)

CITY           SKY/WX    TMP DP  RH WIND       PRES   REMARKS
GOODLETT         N/A     69  33  26 E7        30.39F
ODELL            N/A     68  33  27 E3        30.41F
CROWELL          N/A     69  31  24 SE5       30.41F
KNOX CITY        N/A     69  30  23 E3G9      30.41F
SEYMOUR          N/A     67  33  27 N5        30.40F
$$

SUPPLEMENTAL OBSERVATIONS (NWS SAN ANGELO AREA)

CITY           SKY/WX    TMP DP  RH WIND       PRES   REMARKS
WEINERT          N/A     69  34  27 E7        30.41F
HASKELL          N/A     67  29  24 NE6       30.41F
THROCKMORTON     N/A     68  35  29 E3        30.40F
STAMFORD         N/A     67  35  30 W1        30.41F
CLYDE            N/A     67  33  28 E3        30.41F
$$

SUPPLEMENTAL OBSERVATIONS (NWS SHREVEPORT AREA)

CITY           SKY/WX    TMP DP  RH WIND       PRES   REMARKS
$$

SUPPLEMENTAL OBSERVATIONS ARE A COLLECTION OF AUTOMATED INSTRUMENTS
THAT ARE MAINTAINED BY A VARIETY OF FEDERAL AND STATE AGENCIES.
CERTAIN ELEMENTS...SUCH AS HUMIDITY VALUES AND SUSTAINED WIND
SPEEDS...MAY BE APPROXIMATED.





USA.gov is the U.S. government's official web portal to all federal, state and local government web resources and services.